A4066 KDYS-KDYS

Flight info

Callsign A4066
Flight time 0h 27m
Altitude 16500
Route SDR LANCER MOA D/0100
Aircraft B1/H-V/N

Departure

Time 2026-04-14 19:49
Airport Dyess Air Force Base (KDYS)

Arrival

Time 2026-04-14 20:17
Airport Dyess Air Force Base (KDYS)
Time Latitude Longitude Altitude Speed Heading
2026-04-14 19:27 32.41542 -99.84874 1862 ft 0 kts 78°
2026-04-14 19:39 32.41543 -99.84868 1859 ft 3 kts 79°
2026-04-14 19:39 32.41551 -99.84833 1853 ft 6 kts 65°
2026-04-14 19:39 32.41573 -99.84814 1851 ft 5 kts 10°
2026-04-14 19:40 32.41635 -99.84823 1850 ft 14 kts 348°
2026-04-14 19:40 32.41677 -99.84840 1852 ft 2 kts 304°
2026-04-14 19:40 32.41679 -99.84889 1853 ft 11 kts 261°
2026-04-14 19:40 32.41686 -99.84978 1852 ft 8 kts 329°
2026-04-14 19:41 32.41768 -99.84998 1854 ft 18 kts 350°
2026-04-14 19:41 32.41883 -99.85025 1852 ft 15 kts 348°
2026-04-14 19:41 32.42016 -99.85056 1852 ft 23 kts 349°
2026-04-14 19:41 32.42186 -99.85096 1853 ft 22 kts 349°
2026-04-14 19:42 32.42327 -99.85128 1853 ft 17 kts 349°
2026-04-14 19:42 32.42458 -99.85158 1853 ft 25 kts 348°
2026-04-14 19:42 32.42632 -99.85198 1854 ft 25 kts 351°
2026-04-14 19:42 32.42795 -99.85238 1854 ft 27 kts 348°
2026-04-14 19:43 32.42946 -99.85272 1853 ft 21 kts 348°
2026-04-14 19:43 32.43091 -99.85306 1854 ft 21 kts 348°
2026-04-14 19:43 32.43225 -99.85348 1852 ft 22 kts 341°
2026-04-14 19:43 32.43379 -99.85388 1853 ft 25 kts 349°
2026-04-14 19:44 32.43548 -99.85426 1853 ft 27 kts 348°
2026-04-14 19:44 32.43728 -99.85469 1854 ft 23 kts 349°
2026-04-14 19:44 32.43862 -99.85501 1856 ft 18 kts 344°
2026-04-14 19:44 32.43929 -99.85607 1859 ft 14 kts 265°
2026-04-14 19:45 32.43911 -99.85728 1860 ft 16 kts 258°
2026-04-14 19:45 32.43905 -99.85763 1857 ft 0 kts 259°
2026-04-14 19:47 32.43903 -99.85778 1855 ft 5 kts 259°
2026-04-14 19:47 32.43893 -99.85840 1860 ft 9 kts 258°
2026-04-14 19:47 32.43874 -99.85873 1858 ft 2 kts 197°
2026-04-14 19:47 32.43858 -99.85872 1856 ft 5 kts 172°
2026-04-14 19:48 32.43855 -99.85871 1856 ft 0 kts 172°
2026-04-14 19:48 32.43704 -99.85843 1854 ft 60 kts 168°
2026-04-14 19:48 32.43005 -99.85678 1857 ft 145 kts 171°
2026-04-14 19:49 32.41845 -99.85391 2362 ft 187 kts 171°
2026-04-14 19:49 32.40507 -99.85081 3400 ft 200 kts 172°
2026-04-14 19:49 32.39037 -99.84752 4372 ft 226 kts 172°
2026-04-14 19:49 32.37473 -99.84386 6163 ft 231 kts 172°
2026-04-14 19:50 32.35865 -99.84176 7949 ft 236 kts 186°
2026-04-14 19:50 32.34275 -99.84689 9812 ft 242 kts 208°
2026-04-14 19:50 32.33064 -99.86056 11458 ft 249 kts 235°
2026-04-14 19:50 32.32376 -99.87978 13158 ft 260 kts 258°
2026-04-14 19:51 32.32584 -99.90125 14680 ft 280 kts 290°
2026-04-14 19:51 32.33769 -99.92134 15538 ft 321 kts 308°
2026-04-14 19:51 32.35371 -99.94208 16033 ft 362 kts 310°
2026-04-14 19:51 32.37219 -99.96503 16298 ft 407 kts 310°
2026-04-14 19:52 32.39298 -99.99034 16405 ft 451 kts 311°
2026-04-14 19:52 32.41594 -100.01793 16455 ft 487 kts 311°
2026-04-14 19:52 32.44059 -100.04724 16468 ft 519 kts 311°
2026-04-14 19:52 32.46695 -100.07843 16467 ft 546 kts 312°
2026-04-14 19:53 32.49483 -100.11162 16468 ft 585 kts 312°
2026-04-14 19:53 32.52411 -100.14672 16458 ft 610 kts 311°
2026-04-14 19:53 32.55391 -100.18246 16474 ft 609 kts 311°
2026-04-14 19:53 32.58295 -100.21704 16471 ft 573 kts 311°
2026-04-14 19:54 32.61050 -100.24973 16469 ft 549 kts 310°
2026-04-14 19:54 32.64802 -100.32729 16473 ft 539 kts 290°
2026-04-14 19:54 32.66304 -100.36839 16481 ft 539 kts 290°
2026-04-14 19:55 32.67792 -100.40893 16482 ft 539 kts 290°
2026-04-14 19:55 32.69284 -100.45000 16481 ft 540 kts 290°
2026-04-14 19:55 32.70773 -100.49112 16475 ft 540 kts 290°
2026-04-14 19:55 32.72263 -100.53224 16468 ft 540 kts 290°
2026-04-14 19:56 32.73755 -100.57335 16460 ft 540 kts 290°
2026-04-14 19:56 32.75254 -100.61454 16446 ft 540 kts 290°
2026-04-14 19:56 32.76750 -100.65557 16452 ft 541 kts 290°
2026-04-14 19:56 32.78212 -100.69614 16438 ft 537 kts 287°
2026-04-14 19:57 32.78600 -100.73928 15411 ft 525 kts 265°
2026-04-14 19:57 32.79700 -100.78035 14655 ft 539 kts 308°
2026-04-14 19:57 32.83072 -100.80012 14836 ft 566 kts 355°
2026-04-14 19:57 32.86834 -100.78672 14932 ft 572 kts 30°
2026-04-14 19:58 32.90653 -100.78025 15754 ft 569 kts 337°
2026-04-14 19:58 32.93310 -100.81126 14357 ft 539 kts 281°
2026-04-14 19:58 32.92353 -100.85160 11399 ft 541 kts 217°
2026-04-14 19:58 32.88717 -100.85843 10417 ft 549 kts 175°
2026-04-14 19:59 32.84873 -100.85062 10878 ft 574 kts 156°
2026-04-14 19:59 32.82411 -100.81556 13179 ft 574 kts 97°
2026-04-14 19:59 32.83907 -100.77385 15378 ft 584 kts 52°
2026-04-14 19:59 32.86702 -100.73617 14947 ft 629 kts 36°
2026-04-14 20:00 32.90843 -100.71981 14798 ft 645 kts 354°
2026-04-14 20:00 32.94960 -100.73882 14557 ft 645 kts 312°
2026-04-14 20:00 32.96506 -100.78634 14513 ft 631 kts 262°
2026-04-14 20:00 32.94378 -100.82950 14064 ft 640 kts 211°
2026-04-14 20:01 32.89992 -100.83479 13474 ft 660 kts 168°
2026-04-14 20:01 32.86002 -100.82140 12803 ft 572 kts 163°
2026-04-14 20:01 32.82287 -100.80858 12356 ft 542 kts 172°
2026-04-14 20:01 32.78535 -100.81380 11597 ft 567 kts 198°
2026-04-14 20:02 32.74900 -100.83411 11272 ft 585 kts 214°
2026-04-14 20:02 32.72370 -100.87221 10985 ft 601 kts 246°
2026-04-14 20:02 32.71738 -100.92145 10895 ft 612 kts 268°
2026-04-14 20:02 32.72116 -100.95450 10622 ft 606 kts 280°
2026-04-14 20:03 32.73561 -101.01622 11417 ft 566 kts 283°
2026-04-14 20:03 32.76371 -101.04706 12014 ft 603 kts 347°
2026-04-14 20:03 32.79207 -101.04436 12585 ft 617 kts 20°
2026-04-14 20:03 32.83181 -101.00068 15733 ft 595 kts 53°
2026-04-14 20:04 32.84667 -100.97247 16430 ft 618 kts 60°
2026-04-14 20:04 32.86400 -100.92409 16449 ft 646 kts 72°
2026-04-14 20:04 32.87470 -100.87206 16061 ft 645 kts 80°
2026-04-14 20:04 32.88110 -100.81946 15750 ft 638 kts 85°
2026-04-14 20:05 32.88326 -100.76701 15639 ft 629 kts 91°
2026-04-14 20:05 32.88002 -100.71558 15525 ft 622 kts 99°
2026-04-14 20:05 32.87327 -100.66469 15263 ft 620 kts 101°
2026-04-14 20:05 32.86547 -100.61482 14828 ft 622 kts 102°
2026-04-14 20:06 32.85795 -100.56508 14017 ft 600 kts 101°
2026-04-14 20:06 32.85066 -100.51685 12986 ft 585 kts 102°
2026-04-14 20:06 32.84353 -100.46957 11882 ft 576 kts 101°
2026-04-14 20:06 32.83677 -100.42262 10775 ft 571 kts 100°
2026-04-14 20:07 32.82982 -100.37656 9958 ft 561 kts 101°
2026-04-14 20:07 32.82250 -100.33141 9250 ft 552 kts 103°
2026-04-14 20:07 32.81466 -100.28709 8494 ft 545 kts 103°
2026-04-14 20:07 32.80634 -100.24295 7514 ft 545 kts 104°
2026-04-14 20:08 32.79768 -100.19992 6804 ft 540 kts 105°
2026-04-14 20:08 32.78822 -100.15701 6212 ft 534 kts 107°
2026-04-14 20:08 32.77840 -100.11454 5592 ft 531 kts 107°
2026-04-14 20:08 32.76844 -100.07239 4984 ft 527 kts 108°
2026-04-14 20:09 32.75512 -100.03242 4058 ft 520 kts 126°
2026-04-14 20:09 32.73077 -100.00173 3683 ft 505 kts 141°
2026-04-14 20:09 32.70468 -99.97420 3614 ft 496 kts 141°
2026-04-14 20:09 32.67889 -99.94734 3506 ft 490 kts 141°
2026-04-14 20:10 32.65325 -99.92094 3560 ft 485 kts 141°
2026-04-14 20:10 32.62687 -99.89731 4013 ft 461 kts 162°
2026-04-14 20:10 32.59563 -99.89186 3895 ft 460 kts 179°
2026-04-14 20:10 32.56285 -99.88944 3822 ft 497 kts 174°
2026-04-14 20:11 32.52793 -99.88065 3612 ft 529 kts 168°
2026-04-14 20:11 32.49096 -99.87105 3039 ft 553 kts 169°
2026-04-14 20:11 32.45288 -99.86205 2532 ft 563 kts 169°
2026-04-14 20:11 32.41502 -99.85587 2538 ft 526 kts 189°
2026-04-14 20:12 32.38992 -99.88171 3071 ft 491 kts 256°
2026-04-14 20:12 32.39710 -99.91897 3343 ft 441 kts 303°
2026-04-14 20:12 32.41977 -99.93619 3078 ft 332 kts 345°
2026-04-14 20:12 32.43991 -99.94121 3050 ft 262 kts 346°
2026-04-14 20:13 32.45672 -99.94535 3010 ft 236 kts 346°
2026-04-14 20:13 32.47229 -99.94901 2827 ft 219 kts 347°
2026-04-14 20:13 32.48703 -99.94631 2532 ft 216 kts 23°
2026-04-14 20:13 32.49759 -99.93361 2641 ft 221 kts 63°
2026-04-14 20:14 32.49957 -99.91575 2600 ft 222 kts 100°
2026-04-14 20:14 32.49672 -99.89738 2642 ft 232 kts 112°
2026-04-14 20:14 32.49123 -99.87939 2721 ft 216 kts 118°
2026-04-14 20:14 32.48239 -99.86825 2609 ft 169 kts 162°
2026-04-14 20:15 32.47142 -99.86549 2432 ft 156 kts 172°
2026-04-14 20:15 32.46082 -99.86378 2342 ft 156 kts 172°
2026-04-14 20:15 32.45038 -99.86151 2133 ft 154 kts 169°
2026-04-14 20:15 32.43994 -99.85902 1905 ft 151 kts 171°
2026-04-14 20:16 32.42922 -99.85662 1860 ft 141 kts 163°
2026-04-14 20:16 32.42262 -99.85501 1865 ft 75 kts 170°
2026-04-14 20:16 32.41776 -99.85391 1859 ft 70 kts 169°
2026-04-14 20:16 32.41336 -99.85284 1862 ft 54 kts 162°
2026-04-14 20:17 32.41237 -99.85139 1863 ft 9 kts 69°
2026-04-14 20:17 32.41268 -99.85022 1861 ft 19 kts 78°
2026-04-14 20:17 32.41297 -99.84913 1861 ft 9 kts 57°
2026-04-14 20:17 32.41323 -99.84841 1859 ft 12 kts 78°
2026-04-14 20:18 32.41327 -99.84813 1857 ft 0 kts 79°